Location: Knowlton
(51.2333°N, 1.2667°E)
Time: 03:15:38
(UTC+00:00)

Cosmos 841 Rocket - Pass Details

Date: 18 April 2021
Orbit: 747 x 772 km, 74.0° (Epoch: 06 May)

Event Time Altitude Azimuth Distance (km) Brightness Sun altitude
Rises 23:24:46 0° 330° (NNW) 3,241 7.8 -27.3°
Reaches altitude 10° 23:27:18 10° 322° (NW) 2,306 6.7 -27.3°
Enters shadow 23:31:35 36° 269° (W) 1,195 4.5 -27.4°
